www.pogodaiklimat.ru

Погода и климат >> Архив погоды >> Пакистан >> Rohri


ПОГОДА в Rohri

  • Прогноз погоды в Rohri
  • Монитор погоды в Rohri
  • Климат города

АРХИВ ПОГОДЫ в Rohri

Время (UTC), дата Ветер
(напр.,м/с)
 
Видим.   Явления Облачность Т
(С)
Тd
(С)
f
(%)
Тe
(С)
Тes
(С)
Комфортность P
(гПа)
Po
(гПа)
Тmin
(С)
Tmax
(С)
R
(мм)
R24
(мм)
S
(см)
06 9.12 СВ 1 4000 м мгла ясно +20.0 +13.0 64 +23 +32 комфорт 1017.2 1009.3
09 9.12 штиль 0 4000 м мгла ясно +24.0 +11.7 46 +26 +35 жарко 1015.1 1007.3
12 9.12 штиль 0 4000 м мгла ясно +24.0 +13.9 53 +26 +27 жарко 1012.9 1005.1 +25.1
15 9.12 штиль 0 4000 м мгла ясно +20.0 +14.9 72 +22 +22 комфорт 1014.4 1006.5
18 9.12 штиль 0 4000 м дымка ясно +17.0 +13.5 80 +17 +17 1015.7 1007.7
21 9.12 штиль 0 4000 м дымка ясно +14.0 +10.2 78 +14 +14 1013.4 1005.3
00 10.12 штиль 0 1000 м дымка ясно +11.0 +6.8 75 +10 +10 1013.0 1004.8
03 10.12 штиль 0 1000 м дымка ясно +15.5 +13.7 89 +15 +16 1013.6 1005.6 +12.1
06 10.12 штиль 0 4000 м мгла ясно +20.0 +13.0 64 +22 +32 комфорт 1014.3 1006.4
09 10.12 штиль 0 4000 м мгла ясно +24.0 +13.9 53 +26 +36 жарко 1012.2 1004.4
12 10.12 штиль 0 4000 м мгла ясно +24.0 +13.9 53 +26 +27 жарко 1011.0 1003.2 +25.0
15 10.12 штиль 0 4000 м мгла ясно +20.0 +14.9 72 +22 +22 комфорт 1013.2 1005.3
18 10.12 штиль 0 2000 м мгла ясно +17.0 +13.5 80 +17 +17 1014.7 1006.7
21 10.12 штиль 0 1000 м дымка ясно +15.0 +11.3 79 +15 +15 1013.9 1005.9
00 11.12 штиль 0 1000 м дымка ясно +13.0 +9.1 77 +13 +13 1013.8 1005.7
03 11.12 штиль 0 2000 м дымка ясно +15.5 +13.7 89 +15 +16 1015.0 1007.0 +12.1
06 11.12 штиль 0 4000 м мгла ясно +18.5 +13.2 71 +19 +29 1017.3 1009.4
09 11.12 штиль 0 4000 м мгла ясно +21.0 +14.2 65 +24 +33 комфорт 1016.3 1008.4
12 11.12 штиль 0 4000 м мгла ясно +21.0 +14.2 65 +24 +24 комфорт 1014.6 1006.7 +22.1
15 11.12 штиль 0 4000 м мгла ясно +18.0 +12.7 71 +18 +18 1016.2 1008.3
18 11.12 штиль 0 4000 м мгла ясно +16.0 +12.4 79 +16 +16 1010.2 1010.0
21 11.12 штиль 0 1000 м дымка ясно +14.0 +10.2 78 +14 +14 1016.6 1008.5
00 12.12 штиль 0 1000 м дымка ясно +12.0 +7.9 76 +12 +12 1015.8 1007.7
03 12.12 штиль 0 1000 м дымка ясно +13.0 +9.1 77 +13 +13 1017.7 1009.6 +12.1
06 12.12 штиль 0 4000 м мгла ясно +18.0 +10.6 62 +18 +28 1018.8 1010.9
09 12.12 штиль 0 4000 м мгла ясно +21.0 +12.2 57 +23 +32 комфорт 1018.9 1000.0
12 12.12 штиль 0 4000 м мгла ясно +21.0 +12.2 57 +23 +23 комфорт 1017.5 996.1 +22.1
15 12.12 штиль 0 4000 м мгла ясно +17.0 +12.5 75 +17 +17 1019.0 1000.0
18 12.12 штиль 0 4000 м мгла ясно +15.0 +11.3 79 +15 +15 1010.4 1012.4
21 12.12 штиль 0 2000 м мгла ясно +13.0 +9.8 81 +12 +12 1019.5 1020.0
00 13.12 штиль 0 2000 м мгла ясно +12.0 +9.0 82 +11 +11 1018.1 1009.6
03 13.12 штиль 0 2000 м мгла ясно +12.0 +10.1 88 +11 +12 1020.1 1012.0 +11.5
06 13.12 штиль 0 4000 м мгла ясно +18.5 +13.2 71 +19 +29 1024.1 1016.1
09 13.12 штиль 0 4000 м мгла ясно +22.0 +13.4 58 +25 +34 комфорт 1023.3 1017.0
12 13.12 штиль 0 4000 м мгла ясно +22.0 +11.3 51 +24 +25 комфорт 1020.3 1012.4 +22.5
15 13.12 штиль 0 4000 м мгла ясно +18.0 +12.7 71 +18 +18 1020.1 1000.0
18 13.12 штиль 0 4000 м мгла ясно +15.0 +9.2 68 +15 +15 1021.9 1000.0
21 13.12 штиль 0 2000 м мгла ясно +13.5 +9.6 77 +13 +13 1021.1 1000.0
00 14.12 штиль 0 1000 м мгла ясно +11.5 +7.4 76 +11 +11 1021.3 1013.2
03 14.12 штиль 0 1000 м мгла ясно +11.0 +6.8 75 +10 +11 1023.3 1015.1 +9.1
06 14.12 штиль 0 4000 м мгла ясно +18.0 +8.3 53 +18 +28 1025.1 1000.0
09 14.12 штиль 0 4000 м мгла ясно +21.0 +10.0 49 +22 +32 комфорт 1024.1 1000.0
12 14.12 штиль 0 4000 м мгла ясно +21.5 +10.6 50 +23 +24 комфорт 1022.1 1000.0 +23.1
15 14.12 штиль 0 4000 м мгла ясно +18.5 +11.2 62 +19 +19 1023.6 1000.0
18 14.12 штиль 0 4000 м мгла ясно +15.5 +11.8 79 +15 +15 1024.4 1000.0
21 14.12 штиль 0 4000 м мгла ясно +14.0 +10.2 78 +14 +14 1023.8 1000.0
00 15.12 штиль 0 4000 м мгла ясно +12.0 +7.9 76 +12 +12 1024.0 1015.8
03 15.12 штиль 0 4000 м мгла ясно +11.0 +9.0 87 +10 +11 1024.4 1016.1 +9.1
06 15.12 штиль 0 4000 м мгла ясно +17.0 +9.4 61 +17 +27 1025.4 1000.0
09 15.12 штиль 0 4000 м мгла ясно +20.0 +8.6 48 +21 +30 комфорт 1023.2 1000.0
12 15.12 СВ 1 4000 м мгла ясно +21.5 +10.6 50 +23 +24 комфорт 1021.3 1000.0 +22.1
15 15.12 штиль 0 4000 м мгла ясно +18.0 +10.6 62 +18 +18 1021.7 1000.0
18 15.12 штиль 0 4000 м мгла ясно +15.0 +9.2 68 +15 +15 1022.9 1000.0
21 15.12 штиль 0 2000 м мгла ясно +13.5 +9.6 77 +13 +13 1022.1 1000.0
00 16.12 штиль 0 2000 м мгла ясно +12.5 +8.5 77 +12 +12 1022.3 1014.2

 

Местоположение метеостанции Rohri (Пакистан): широта 27.67 долгота 68.90 высота над уровнем моря 68 м.

В архиве по умолчанию представлена погода в Rohri за последнюю неделю. Архивные данные за месяц целиком и за предыдущие месяцы, начиная с января 2011 года, Вы можете получить, выбрав интересующий диапазон дат из раскрывающегося списка и нажав кнопку "Ввод!".


*Определитесь, кто Вы:
робот инопланетянин человек

Внимание! Время в таблицах - всемирное. Для получения местного времени необходимо прибавить поправку, которая в Rohri равна 5 ч.

Смотрите также архив погоды в соседних городах и на ближайших метеорологических станциях:

Погода в Jacobabad (Пакистан) (82 км)
Погода в Pad Idan (Пакистан) (119 км)
Погода в Nawabshah (Пакистан) (166 км)
Погода в Khanpur (Пакистан) (206 км)
Погода в Jaisalmer (Rajasthan, Индия) (217 км)
Погода в Khuzdar (Пакистан) (224 км)
Погода в Sibi (Пакистан) (232 км)
Погода в Chhor (Пакистан) (255 км)
Погода в Barkhan (Пакистан) (258 км)
Погода в Hyderabad (Пакистан) (259 км)

Пояснения к столбцам:

Ветер - указаны скорость ветра в м/с - средняя за 10 мин, порывы в срок и между сроками (в фигурных скобках) и направление, откуда дует ветер: С - северный, СВ - северо-восточный, В - восточный, ЮВ - юго-восточный, Ю - южный, ЮЗ - юго-западный, З - западный, СЗ - северо-западный.
Видимость - горизонтальная дальность видимости в метрах или километрах. При видимости от 1 до 10 км при отсутствии осадков обычно наблюдается дымка, при ухудшении видимости до 1 км и менее - туман. В сухую погоду видимость может ухудшаться дымом, пылью или мглою.
Явления - указаны атмосферные явления, наблюдавшиеся в срок или в последний час перед сроком; фигурными скобками обозначены явления, наблюдавшиеся между сроками (за 1-3 часа до срока); квадратными скобками обозначены град или гололедные отложения с указанием их диаметра в мм.
Облачность - указаны через наклонную черту общая и нижняя облачность в баллах и высота нижней границы облаков в метрах; квадратными скобками обозначены формы облаков: Ci - перистые, Cs - перисто-слоистые, Cc - перисто-кучевые, Ac - высококучевые, As - высокослоистые, Sc - слоисто-кучевые, Ns - слоисто-дождевые, Cu - кучевые, Cb - кучево-дождевые. Подробнее классификацию облаков см. в Атласе облаков (PDF).
T - Температура воздуха - температура, измеренная на высоте 2 м над землей.
Td - Температура точки росы - температура, при понижении до которой содержащийся в воздухе водяной пар достигнет насыщения.
f - Относительная влажность воздуха - влажноcть воздуха, измеренная на высоте 2 м над землей.
Te - Эффективная температура - температура, которую ощущает одетый по сезону человек в тени. Характеристика душности погоды. При расчете учитывается влияние влажности воздуха и скорости ветра на теплоощущения человека.
Tes - Эффективная температура на солнце - температура, которую ощущает человек, с поправкой на солнечный нагрев. Характеристика знойности погоды. Зависит от высоты солнца над горизонтом, облачности и скорости ветра. Ночью, в пасмурную погоду, а также при ветре 12 м/с и более поправка равна нулю.
P - Атмосферное давление - приведенное к уровню моря атмосферное давление.
Po - Атмосферное давление - измеренное на уровне метеостанции атмосферное давление.
Tmin - Минимальная температура - минимум температуры воздуха на высоте 2 м над землей.
Tmax - Максимальная температура - максимум температуры воздуха на высоте 2 м над землей.
R - Количество осадков - Количество выпавших осадков за период времени, мм. При наведении курсора мыши на число - период времени, за который выпало указанное количество осадков.
R24 - Количество осадков - Количество выпавших осадков за 24 часа, мм.
S - Снежный покров - Высота снежного покрова, см. При наведении курсора мыши на число - состояние снежного покрова и степень покрытия местности в баллах.